This is the latest recevied weather packets stored in our database for station/object W1RCY. If no packets are shown the sender has not sent any weather packets the latest 10 day(s).
| Time | Temp. | Humidity | Pressure | Rain* | Wind** | Luminosity | Snow |
|---|---|---|---|---|---|---|---|
| 1777327984 | 18.89° C | 40% | 1022.3 hPa | 0 mm | - | 48 W/m² | - |
| 1777327683 | 18.89° C | 40% | 1022.1 hPa | 0 mm | - | 69 W/m² | - |
| 1777327379 | 18.89° C | 40% | 1022.2 hPa | 0 mm | - | 69 W/m² | - |
| 1777327076 | 19.44° C | 40% | 1022.4 hPa | 0 mm | - | 47 W/m² | - |
| 1777326773 | 20° C | 41% | 1022.3 hPa | 0 mm | - | 61 W/m² | - |
| 1777326470 | 18.89° C | 41% | 1022.3 hPa | 0 mm | - | 85 W/m² | - |
| 1777326168 | 20° C | 39% | 1022.3 hPa | 0 mm | - | 56 W/m² | - |
| 1777325866 | 20° C | 39% | 1022.1 hPa | 0 mm | - | 122 W/m² | - |
| 1777325564 | 20.56° C | 38% | 1022.2 hPa | 0 mm | - | 143 W/m² | - |
| 1777325261 | 20.56° C | 39% | 1022.1 hPa | 0 mm | - | 113 W/m² | - |
| 1777324958 | 21.11° C | 37% | 1022.1 hPa | 0 mm | - | 175 W/m² | - |
| 1777324655 | 20.56° C | 37% | 1022.2 hPa | 0 mm | - | 186 W/m² | - |
| 1777324353 | 19.44° C | 38% | 1022.4 hPa | 0 mm | - | 272 W/m² | - |
| 1777324050 | 20° C | 39% | 1022.4 hPa | 0 mm | - | 289 W/m² | - |
| 1777323747 | 20° C | 39% | 1022.2 hPa | 0 mm | - | 291 W/m² | - |
| 1777323444 | 19.44° C | 39% | 1022.2 hPa | 0 mm | - | 335 W/m² | - |
| 1777323141 | 19.44° C | 38% | 1022.3 hPa | 0 mm | - | 352 W/m² | - |
| 1777322839 | 20° C | 38% | 1022.1 hPa | 0 mm | - | 369 W/m² | - |
| 1777322538 | 20° C | 38% | 1022.3 hPa | 0 mm | - | 383 W/m² | - |
| 1777322235 | 20.56° C | 39% | 1022.3 hPa | 0 mm | - | 398 W/m² | - |
| 1777321931 | 20.56° C | 37% | 1022.1 hPa | 0 mm | - | 410 W/m² | - |
| 1777321629 | 22.22° C | 35% | 1022.2 hPa | 0 mm | - | 428 W/m² | - |
| 1777321325 | 22.22° C | 34% | 1021.8 hPa | 0 mm | - | 448 W/m² | - |
| 1777321022 | 22.78° C | 34% | 1022 hPa | 0 mm | - | 462 W/m² | - |
| 1777320720 | 22.78° C | 35% | 1021.7 hPa | 0 mm | - | 472 W/m² | - |
* Rain latest hour (hover to see other rain measurements)
** Current wind speed in m/s (hover to see current wind gust speed)